Find INTELSAT III F-7

NORAD ID: 4376 Int'l Des: 1970-032 Owner: INTEL Country: I-INT operational
MEOCIRCULAR

Current View

Loading 3D Globe...

About INTELSAT III F-7

INTELSAT III F-7 (NORAD 4376) is a satellite by INTEL of I-INT. It operates in MEO, CIRCULAR orbit

Upcoming Passes

Passes for default location (London). Set your location on the main map for personalized predictions.

Altitude History

Loading altitude history...

Two-Line Element Set

1 4376U 70032A 26194.05294382 -.00000300 00000-0 00000+0 0 9990
2 4376 2.4928 87.2549 0002189 230.0618 129.4484 1.00304904 47624
Epoch: Jul 13, 2026 • Age: 25 hours

Current Status

Altitude 35783.9 km
Apogee / Perigee N/A
Velocity 3.07 km/s
Sub-Earth Point 0.41°N, 136.91°E
Type communications

Most Searched